Date Heure Message   (150)           Tout (17926)
30/08/2026 23h 59' 59" On a tout sauvé !
30/08/2026 23h 59' 57" Ping reçu, 829
30/08/2026 23h 59' 50" cPing.
30/08/2026 23h 59' 48" Ping reçu, 827
30/08/2026 23h 59' 39" Ping reçu,         825
30/08/2026 23h 59' 31" Ping reçu, 823
30/08/2026 23h 59' 27" Ping reçu, 822
30/08/2026 23h 59' 20" Enregistrement de l'éclairement (345.6 lux & 0 lux )
30/08/2026 23h 59' 20" Ping reçu,         820
30/08/2026 23h 59' 14" Ping reçu, 819
30/08/2026 23h 58' 54" cPing.
30/08/2026 23h 58' 49" Ping reçu, 813
30/08/2026 23h 58' 45" Ping reçu, 812
30/08/2026 23h 58' 36" Ping reçu,         810
30/08/2026 23h 58' 27" Ping reçu, 808
30/08/2026 23h 58' 23" Ping reçu, 807
30/08/2026 23h 58' 19" Ping reçu, 806
30/08/2026 23h 58' 15" Ping reçu,         805
30/08/2026 23h 58' 14" Enregistrement de l'éclairement (345.6 lux & 0 lux )
30/08/2026 23h 58' 12" Ping reçu, 804
30/08/2026 23h 58' 08" Ping reçu, 803
30/08/2026 23h 58' 04" Ping reçu, 802
30/08/2026 23h 57' 59" cPing.
30/08/2026 23h 57' 56" Enregistrement de la hauteur d'eau (783,640 mm @ 99,8%)
30/08/2026 23h 57' 56" Pressions pluviométriques (32,07 & 64,00)
30/08/2026 23h 57' 56" Ping reçu,         800
30/08/2026 23h 57' 55" Enregistrement des paramètres du vent (49.1° @ 0 m/s)
30/08/2026 23h 57' 42" Ping reçu, 797
30/08/2026 23h 57' 33" Ping reçu,         795
30/08/2026 23h 57' 24" Ping reçu, 793
30/08/2026 23h 57' 20" Ping reçu, 792
30/08/2026 23h 57' 16" Ping reçu, 791
30/08/2026 23h 57' 12" Ping reçu,         790
30/08/2026 23h 57' 09" Ping reçu, 789
30/08/2026 23h 57' 05" Ping reçu, 788
30/08/2026 23h 57' 02" cPing.
30/08/2026 23h 56' 52" Ping reçu,         785
30/08/2026 23h 56' 44" ERR. Ther. 14 HS.
30/08/2026 23h 56' 42" Ping reçu, 783
30/08/2026 23h 56' 32" Enregistrement de la température (19,642 °C)
30/08/2026 23h 56' 30" Ping reçu,         780
30/08/2026 23h 56' 17" Ping reçu, 777
30/08/2026 23h 56' 07" cPing.
30/08/2026 23h 55' 58" Enregistrement de l'éclairement (345.6 lux & 0 lux )
30/08/2026 23h 55' 51" Ping reçu, 771
30/08/2026 23h 55' 35" Ping reçu, 767
30/08/2026 23h 55' 31" Ping reçu, 766
30/08/2026 23h 55' 27" Ping reçu,         765
30/08/2026 23h 55' 22" Enregistrement de l'Arduino : (24,5 °C)
30/08/2026 23h 55' 15" Ping reçu, 763
30/08/2026 23h 55' 10" cPing.
30/08/2026 23h 55' 06" Ping reçu, 761
30/08/2026 23h 54' 59" Ping reçu, 759
30/08/2026 23h 54' 47" Ping reçu, 756
30/08/2026 23h 54' 38" Ping reçu, 754
30/08/2026 23h 54' 33" Ping reçu, 753
30/08/2026 23h 54' 29" Ping reçu, 752
30/08/2026 23h 54' 16" Ping reçu, 749
30/08/2026 23h 54' 15" cPing.
30/08/2026 23h 54' 09" Ping reçu, 747
30/08/2026 23h 54' 05" Ping reçu, 746
30/08/2026 23h 54' 01" Ping reçu,         745
30/08/2026 23h 53' 52" Ping reçu, 743
30/08/2026 23h 53' 42" Enregistrement de l'éclairement (345.6 lux & 0 lux )
30/08/2026 23h 53' 39" Ping reçu,         740
30/08/2026 23h 53' 35" Ping reçu, 739
30/08/2026 23h 53' 26" Ping reçu, 737
30/08/2026 23h 53' 18" cPing.
30/08/2026 23h 53' 17" Ping reçu,         735
30/08/2026 23h 53' 13" Ping reçu, 734
30/08/2026 23h 53' 06" Ping reçu, 732
30/08/2026 23h 52' 58" Ping reçu,         730
30/08/2026 23h 52' 53" Ping reçu, 729
30/08/2026 23h 52' 45" ERR. Ther. 1 HS.
30/08/2026 23h 52' 45" ERR. Ther. 14 HS.
30/08/2026 23h 52' 44" Ping reçu, 727
30/08/2026 23h 52' 40" Ping reçu, 726
30/08/2026 23h 52' 36" Ping reçu,         725
30/08/2026 23h 52' 32" Enregistrement de l'éclairement (345.6 lux & 0 lux )
30/08/2026 23h 52' 27" Ping reçu, 723
30/08/2026 23h 52' 23" cPing.
30/08/2026 23h 52' 14" Enregistrement des paramètres du vent (49.1° @ 0 m/s)
30/08/2026 23h 52' 14" Ping reçu,         720
30/08/2026 23h 52' 09" Ping reçu, 719
30/08/2026 23h 52' 05" Ping reçu, 718
30/08/2026 23h 52' 00" Ping reçu, 717
30/08/2026 23h 51' 56" Ping reçu, 716
30/08/2026 23h 51' 52" Ping reçu,         715
30/08/2026 23h 51' 48" Ping reçu, 714
30/08/2026 23h 51' 44" Ping reçu, 713
30/08/2026 23h 51' 41" Ping reçu, 712
30/08/2026 23h 51' 37" Ping reçu, 711
30/08/2026 23h 51' 32" Ping reçu,         710
30/08/2026 23h 51' 27" cPing.
30/08/2026 23h 51' 25" Enregistrement de l'éclairement (345.6 lux & 0 lux )
30/08/2026 23h 51' 20" Ping reçu, 707
30/08/2026 23h 51' 06" Ping reçu, 704
30/08/2026 23h 51' 02" Ping reçu, 703
30/08/2026 23h 50' 58" Ping reçu, 702
30/08/2026 23h 50' 54" Ping reçu, 701
30/08/2026 23h 50' 51" Ping reçu,         700
30/08/2026 23h 50' 45" Ping reçu, 699
30/08/2026 23h 50' 42" Ping reçu, 698
30/08/2026 23h 50' 38" Ping reçu, 697
30/08/2026 23h 50' 30" cPing.
30/08/2026 23h 50' 29" Ping reçu,         695
30/08/2026 23h 50' 25" Ping reçu, 694
30/08/2026 23h 50' 12" Ping reçu, 692
30/08/2026 23h 50' 08" Ping reçu, 691
30/08/2026 23h 50' 04" Ping reçu,         690
30/08/2026 23h 50' 00" Ping reçu, 689
30/08/2026 23h 49' 56" Ping reçu, 688
30/08/2026 23h 49' 51" Ping reçu, 687
30/08/2026 23h 49' 35" Ping reçu, 683
30/08/2026 23h 49' 35" cPing.
30/08/2026 23h 49' 27" Ping reçu, 681
30/08/2026 23h 49' 23" Ping reçu,         680
30/08/2026 23h 49' 18" Ping reçu, 679
30/08/2026 23h 49' 14" Ping reçu, 678
30/08/2026 23h 49' 10" Ping reçu, 677
30/08/2026 23h 49' 09" Enregistrement de l'éclairement (345.6 lux & 0 lux )
30/08/2026 23h 49' 06" Ping reçu, 676
30/08/2026 23h 49' 01" Ping reçu,         675
30/08/2026 23h 48' 50" Ping reçu, 672
30/08/2026 23h 48' 46" ERR. Ther. 1 HS.
30/08/2026 23h 48' 44" Ping reçu, 671
30/08/2026 23h 48' 41" Ping reçu,         670
30/08/2026 23h 48' 38" cPing.
30/08/2026 23h 48' 37" Ping reçu, 669
30/08/2026 23h 48' 32" Ping reçu, 668
30/08/2026 23h 48' 28" Ping reçu, 667
30/08/2026 23h 48' 24" Ping reçu, 666
30/08/2026 23h 48' 20" Ping reçu,         665
30/08/2026 23h 48' 11" Ping reçu, 663
30/08/2026 23h 48' 06" Ping reçu, 662
30/08/2026 23h 48' 02" Ping reçu, 661
30/08/2026 23h 47' 58" Ping reçu,         660
30/08/2026 23h 47' 45" Ping reçu, 657
30/08/2026 23h 47' 43" cPing.
30/08/2026 23h 47' 42" Ping reçu, 656
30/08/2026 23h 47' 36" Ping reçu,         655
30/08/2026 23h 47' 32" Ping reçu, 654
30/08/2026 23h 47' 29" Ping reçu, 653
30/08/2026 23h 47' 26" Ping reçu, 652
30/08/2026 23h 47' 21" Ping reçu, 651
30/08/2026 23h 47' 17" Ping reçu,         650
30/08/2026 23h 47' 12" Ping reçu, 649
30/08/2026 23h 47' 08" Ping reçu, 648
30/08/2026 23h 47' 04" Ping reçu, 647
30/08/2026 23h 47' 00" Ping reçu, 646
      |         Voir Tout